Simultaneous Nadir Overpasses (SNOs) Predictions

Prediction of SNOs between LANDSAT-8 and NOAA-19 Satellite Orbit:

Table of predicted SNOs for the next 14.0 days since TLE Epoch: 5/21/2022
Index Date (LANDSAT-8) Time (LANDSAT-8) Lat,Lon (LANDSAT-8) SZA (LANDSAT-8 ) Date (NOAA-19) Time (NOAA-19) Lat,Lon (NOAA-19) SZA (NOAA-19 ) Distance(km) Time Diff (sec)
1 05/21/2022 14:13:17 80.78, 2.11 62.38 05/21/2022 14:12:31 80.78, 1.97 62.35 2.53 46
2 05/21/2022 15:02:44 -80.78, 169.69 117.64 05/21/2022 15:03:29 -80.77, 169.72 117.62 1.26 45
3 05/23/2022 20:36:28 80.76, -93.94 61.90 05/23/2022 20:36:28 80.78, -93.84 61.92 2.42 0
4 05/26/2022 02:10:11 -80.78, 2.90 118.47 05/26/2022 02:09:24 -80.79, 2.79 118.50 1.84 47
5 05/26/2022 02:59:38 80.76, 170.24 61.48 05/26/2022 03:00:25 80.78, 170.27 61.52 2.10 47
6 05/28/2022 08:33:21 -80.77, -93.02 118.87 05/28/2022 08:33:20 -80.78, -92.98 118.86 1.10 1
7 05/30/2022 14:07:03 80.78, 3.64 60.80 05/30/2022 14:06:19 80.78, 3.82 60.80 3.15 44
8 05/30/2022 14:56:30 -80.78, 171.28 119.21 05/30/2022 14:57:16 -80.78, 171.18 119.20 1.83 46
9 06/01/2022 20:30:12 80.78, -92.18 60.47 06/01/2022 20:30:16 80.79, -92.28 60.47 2.00 4
10 06/04/2022 02:03:54 -80.79, 4.60 119.78 06/04/2022 02:03:09 -80.79, 4.49 119.82 2.02 45



Historial Predications of SNOs between LANDSAT-8 and NOAA-19
